Weather Roundup
Issued by NWS Corpus Christi, TX

Home | Current Version | Previous Version | Text Only | Print | Product List | Glossary On
Versions: 1 2 3 4 5 6 7 8 9 10 11 12 13 14 15 16 17 18 19 20 21 22 23 24 25 26 27 28 29 30 31 32 33 34 35 36 37 38 39 40 41 42 43 44 45 46 47 48 49 50
000
ASUS44 KCRP 270910
HRRCRP

SOUTH TEXAS REGIONAL WEATHER ROUNDUP
NATIONAL WEATHER SERVICE CORPUS CHRISTI TX
300 AM CST TUE JAN 27 2015


TXZ229>244-271000-
...CORPUS CHRISTI AREA OBSERVATIONS...

CITY           SKY/WX    TMP DP  RH WIND       PRES   REMARKS
CORPUS CHRISTI MOCLDY    49  42  77 SW9       30.19F
NAS CORPUS CHR MOCLDY    53  44  71 SW9       30.18F
ROCKPORT       PTCLDY    54  40  59 SW7       30.18F
KINGSVILLE NAS PTCLDY    55  42  61 W7        30.20F
ALICE          MOCLDY    51  40  65 W6        30.19F
FALFURRIAS     PTCLDY    48  39  73 CALM      30.19F
$$

...VICTORIA AREA OBSERVATIONS...

CITY           SKY/WX    TMP DP  RH WIND       PRES   REMARKS
VICTORIA       CLEAR     51  39  63 SW6       30.17F
BEEVILLE       FAIR      53  41  63 W3        30.17F
PLEASANTON     PTCLDY    49  38  65 NW3       30.18F
SAN ANTONIO    MOCLDY    46  38  73 NW6       30.18S
$$

...LAREDO AREA OBSERVATIONS...

CITY           SKY/WX    TMP DP  RH WIND       PRES   REMARKS
LAREDO         NOT AVBL
COTULLA        PTCLDY    50  40  68 N6        30.19F
DEL RIO        PTCLDY    46  41  82 NW5       30.20F
MCALLEN        PTCLDY    52  45  77 CALM      30.21S
HEBBRONVILLE   MOCLDY    55  40  57 SW6       30.20S
$$

...OTHER TEXAS OBSERVATIONS...

CITY           SKY/WX    TMP DP  RH WIND       PRES   REMARKS
BROWNSVILLE    PTCLDY    53  49  86 S3        30.20F
HOUSTON        PTCLDY    53  42  66 W6        30.12F
COL. STATION   PTCLDY    50  40  68 W6        30.12F
AUSTIN         PTCLDY    47  37  68 SW6       30.14F
WACO           PTCLDY    43  37  79 S5        30.10F
FORT WORTH     PTCLDY    50  36  58 W3        30.08S
WICHITA FALLS  CLEAR     50  36  58 NW6       30.10S
LUBBOCK        PTCLDY    38  33  82 NW7       30.21S
EL PASO        LGT RAIN  49  35  58 N5        30.28F
$$

...MARINE OBSERVATIONS...

STATION/POSITION TIME  SKY/WX   TEMP    WIND        PRES    VSBY  WAVE   SWELL
                                AIR SEA DIR/SP/G                  HT/PER HT/PER
                 (UTC)          (F)     (DEG/KT/KT) (MB)    (MI)  (FT/S) (FT/S)
PORT ARANSAS     0900            57 57  240/ 11/ 13 1022.5F
BUOY 90 E PORT A 0900            68 68  260/ 14/ 16 1021.8F         2/ 4
BUOY 45 SE BAFFI 0900            66 68  220/ 12/ 14 1021.8F         1/ 3
BUOY 200 E PT IS 0900            69 72  320/ 10/ 14 1021.6F         3/ 5   2/ 5
BUOY 15 E GALVES 0900            57 56  250/ 10/ 10 1019.9F         1/ 3
$$


USA.gov is the U.S. government's official web portal to all federal, state and local government web resources and services.